| time (UTC) | temp C | wind direction | speed KPH | gust KPH | rain 1hr cm | rain 24hr cm | rain mn cm | humidity % | barometer mb |
| 20260507232505 | 13 | 279 | 0.0 | 3.2 | 0.00 | 0.08 | 0.03 | 37 | 1005.7 |
| 20260507232005 | 13 | 279 | 0.0 | 4.8 | 0.00 | 0.08 | 0.03 | 39 | 1005.8 |
| 20260507231511 | 13 | 279 | 0.0 | 11.3 | 0.00 | 0.08 | 0.03 | 36 | 1005.8 |
| 20260507231004 | 13 | 294 | 1.6 | 12.9 | 0.00 | 0.08 | 0.03 | 33 | 1005.7 |
| 20260507230507 | 13 | 295 | 3.2 | 12.9 | 0.00 | 0.08 | 0.03 | 34 | 1005.7 |
| 20260507230014 | 13 | 276 | 1.6 | 9.7 | 0.00 | 0.08 | 0.03 | 33 | 1005.7 |
| 20260507225005 | 13 | 285 | 1.6 | 11.3 | 0.00 | 0.08 | 0.03 | 34 | 1005.5 |
| 20260507224512 | 14 | 277 | 3.2 | 11.3 | 0.00 | 0.08 | 0.03 | 33 | 1005.5 |
| 20260507223506 | 14 | 270 | 1.6 | 4.8 | 0.00 | 0.08 | 0.03 | 35 | 1005.3 |
| 20260507223011 | 14 | 263 | 1.6 | 9.7 | 0.00 | 0.08 | 0.03 | 33 | 1005.3 |
| 20260507222006 | 14 | 304 | 4.8 | 6.4 | 0.00 | 0.08 | 0.03 | 33 | 1005.3 |
| 20260507221513 | 15 | 270 | 4.8 | 12.9 | 0.00 | 0.08 | 0.03 | 32 | 1005.2 |
| 20260507221002 | 15 | 294 | 4.8 | 12.9 | 0.00 | 0.10 | 0.03 | 33 | 1005.1 |
| 20260507220506 | 15 | 185 | 3.2 | 9.7 | 0.00 | 0.10 | 0.03 | 31 | 1005.1 |
| 20260507215507 | 15 | 265 | 3.2 | 12.9 | 0.00 | 0.10 | 0.03 | 32 | 1005.0 |
| 20260507215005 | 15 | 288 | 3.2 | 12.9 | 0.00 | 0.10 | 0.03 | 30 | 1005.0 |
| 20260507214519 | 15 | 275 | 1.6 | 12.9 | 0.00 | 0.10 | 0.03 | 32 | 1005.0 |
| 20260507214004 | 15 | 280 | 3.2 | 16.1 | 0.00 | 0.13 | 0.03 | 31 | 1005.0 |
| 20260507213504 | 15 | 273 | 4.8 | 16.1 | 0.00 | 0.15 | 0.03 | 30 | 1005.0 |
| 20260507213016 | 15 | 306 | 4.8 | 11.3 | 0.00 | 0.15 | 0.03 | 33 | 1005.0 |
| 20260507212505 | 15 | 298 | 1.6 | 14.5 | 0.00 | 0.18 | 0.03 | 32 | 1005.0 |
| 20260507212006 | 15 | 285 | 3.2 | 14.5 | 0.00 | 0.18 | 0.03 | 32 | 1005.1 |
| 20260507211514 | 15 | 301 | 3.2 | 14.5 | 0.00 | 0.20 | 0.03 | 33 | 1005.0 |
| 20260507210505 | 15 | 256 | 4.8 | 9.7 | 0.00 | 0.20 | 0.03 | 33 | 1005.0 |
| 20260507205508 | 15 | 265 | 3.2 | 14.5 | 0.00 | 0.23 | 0.03 | 30 | 1004.9 |
| 20260507205002 | 16 | 289 | 4.8 | 14.5 | 0.00 | 0.23 | 0.03 | 31 | 1005.1 |
| 20260507204518 | 15 | 291 | 3.2 | 12.9 | 0.00 | 0.23 | 0.03 | 32 | 1005.0 |
| 20260507204006 | 15 | 289 | 4.8 | 12.9 | 0.00 | 0.25 | 0.03 | 33 | 1004.9 |
| 20260507203507 | 15 | 304 | 1.6 | 8.0 | 0.00 | 0.25 | 0.03 | 35 | 1004.9 |
| 20260507203010 | 15 | 273 | 1.6 | 12.9 | 0.00 | 0.28 | 0.03 | 33 | 1004.9 |
| 20260507202504 | 15 | 294 | 6.4 | 12.9 | 0.00 | 0.30 | 0.03 | 32 | 1004.9 |
| 20260507202006 | 15 | 282 | 4.8 | 11.3 | 0.00 | 0.30 | 0.03 | 31 | 1004.9 |
| 20260507201513 | 15 | 286 | 3.2 | 16.1 | 0.00 | 0.33 | 0.03 | 33 | 1004.9 |
| 20260507201005 | 15 | 263 | 3.2 | 16.1 | 0.00 | 0.36 | 0.03 | 33 | 1004.9 |
| 20260507195503 | 16 | 290 | 1.6 | 16.1 | 0.00 | 0.41 | 0.03 | 34 | 1005.0 |
| 20260507194006 | 15 | 284 | 1.6 | 16.1 | 0.00 | 0.41 | 0.03 | 34 | 1005.2 |
| 20260507193509 | 15 | 299 | 4.8 | 16.1 | 0.00 | 0.41 | 0.03 | 34 | 1005.2 |
| 20260507193018 | 15 | 269 | 1.6 | 9.7 | 0.00 | 0.43 | 0.03 | 37 | 1005.2 |
| 20260507192505 | 15 | 323 | 1.6 | 6.4 | 0.00 | 0.43 | 0.03 | 34 | 1005.2 |
| 20260507192004 | 15 | 278 | 1.6 | 11.3 | 0.00 | 0.43 | 0.03 | 37 | 1005.3 |
| 20260507191514 | 15 | 288 | 6.4 | 11.3 | 0.00 | 0.46 | 0.03 | 33 | 1005.3 |
| 20260507191007 | 15 | 282 | 1.6 | 9.7 | 0.00 | 0.46 | 0.03 | 36 | 1005.3 |
| 20260507190508 | 15 | 294 | 1.6 | 9.7 | 0.00 | 0.48 | 0.03 | 36 | 1005.4 |
| 20260507190018 | 14 | 271 | 1.6 | 12.9 | 0.00 | 0.51 | 0.03 | 36 | 1005.6 |
| 20260507185007 | 15 | 298 | 8.0 | 17.7 | 0.00 | 0.56 | 0.03 | 35 | 1005.6 |
| 20260507184007 | 15 | 281 | 3.2 | 19.3 | 0.00 | 0.64 | 0.03 | 35 | 1005.6 |
| 20260507183506 | 16 | 281 | 8.0 | 19.3 | 0.00 | 0.66 | 0.03 | 35 | 1005.6 |
| 20260507182508 | 16 | 265 | 1.6 | 12.9 | 0.00 | 0.71 | 0.03 | 36 | 1005.7 |
| 20260507182011 | 15 | 313 | 3.2 | 12.9 | 0.00 | 0.71 | 0.03 | 34 | 1005.7 |
| 20260507181520 | 16 | 156 | 3.2 | 11.3 | 0.00 | 0.74 | 0.03 | 33 | 1005.7 |
| 20260507181006 | 16 | 261 | 3.2 | 11.3 | 0.00 | 0.76 | 0.03 | 33 | 1005.6 |
| 20260507180504 | 15 | 288 | 3.2 | 11.3 | 0.00 | 0.86 | 0.03 | 36 | 1005.6 |
| 20260507180016 | 15 | 296 | 3.2 | 14.5 | 0.00 | 0.97 | 0.03 | 35 | 1005.5 |
| 20260507175503 | 16 | 281 | 4.8 | 14.5 | 0.00 | 0.97 | 0.03 | 34 | 1005.5 |
| 20260507175009 | 16 | 263 | 4.8 | 20.9 | 0.00 | 0.97 | 0.03 | 36 | 1005.4 |
| 20260507174519 | 16 | 296 | 6.4 | 20.9 | 0.00 | 0.97 | 0.03 | 32 | 1005.4 |
| 20260507172507 | 16 | 267 | 6.4 | 14.5 | 0.00 | 0.97 | 0.03 | 35 | 1005.6 |
| 20260507172007 | 16 | 265 | 6.4 | 11.3 | 0.00 | 0.97 | 0.03 | 36 | 1005.6 |
| 20260507171522 | 15 | 263 | 3.2 | 14.5 | 0.00 | 0.97 | 0.03 | 39 | 1005.7 |
| 20260507171007 | 16 | 290 | 9.7 | 14.5 | 0.00 | 0.97 | 0.03 | 39 | 1005.6 |
| 20260507170507 | 15 | 276 | 3.2 | 16.1 | 0.00 | 0.97 | 0.03 | 38 | 1005.7 |
| 20260507170013 | 15 | 275 | 9.7 | 16.1 | 0.00 | 0.97 | 0.03 | 37 | 1005.7 |
| 20260507165506 | 15 | 302 | 3.2 | 22.5 | 0.00 | 0.97 | 0.03 | 39 | 1005.8 |
| 20260507165006 | 15 | 229 | 6.4 | 22.5 | 0.00 | 0.97 | 0.03 | 38 | 1006.0 |
| 20260507164522 | 15 | 294 | 1.6 | 12.9 | 0.00 | 0.97 | 0.03 | 42 | 1005.9 |
| 20260507164009 | 14 | 245 | 3.2 | 12.9 | 0.00 | 0.97 | 0.03 | 45 | 1006.1 |
| 20260507163018 | 14 | 274 | 6.4 | 16.1 | 0.00 | 0.97 | 0.03 | 46 | 1006.3 |
| 20260507162507 | 15 | 289 | 3.2 | 11.3 | 0.00 | 0.97 | 0.03 | 47 | 1006.2 |
| 20260507161006 | 15 | 286 | 3.2 | 16.1 | 0.00 | 0.97 | 0.03 | 50 | 1006.2 |
| 20260507160508 | 15 | 294 | 1.6 | 22.5 | 0.00 | 0.97 | 0.03 | 55 | 1006.4 |
| 20260507160022 | 13 | 281 | 3.2 | 22.5 | 0.00 | 0.97 | 0.03 | 55 | 1006.5 |
| 20260507155508 | 13 | 331 | 6.4 | 22.5 | 0.00 | 0.97 | 0.03 | 54 | 1006.6 |
| 20260507155004 | 13 | 286 | 8.0 | 14.5 | 0.00 | 0.97 | 0.03 | 54 | 1006.7 |
| 20260507154516 | 13 | 279 | 4.8 | 12.9 | 0.00 | 0.97 | 0.03 | 55 | 1006.8 |
| 20260507153502 | 13 | 281 | 4.8 | 11.3 | 0.00 | 0.97 | 0.03 | 54 | 1006.9 |
| 20260507153006 | 13 | 288 | 1.6 | 6.4 | 0.03 | 0.97 | 0.03 | 54 | 1006.9 |
| 20260507152504 | 13 | 266 | 3.2 | 11.3 | 0.03 | 0.97 | 0.03 | 54 | 1007.0 |
| 20260507152005 | 13 | 294 | 3.2 | 12.9 | 0.03 | 0.97 | 0.03 | 53 | 1007.2 |
| 20260507151508 | 13 | 294 | 6.4 | 12.9 | 0.03 | 0.97 | 0.03 | 54 | 1007.2 |
| 20260507151004 | 13 | 226 | 3.2 | 24.1 | 0.03 | 0.97 | 0.03 | 60 | 1007.3 |
| 20260507150507 | 14 | 290 | 4.8 | 24.1 | 0.03 | 0.97 | 0.03 | 54 | 1007.3 |
| 20260507150012 | 14 | 313 | 6.4 | 24.1 | 0.03 | 0.97 | 0.03 | 52 | 1007.2 |
| 20260507145504 | 14 | 257 | 3.2 | 11.3 | 0.03 | 0.97 | 0.03 | 52 | 1007.2 |
| 20260507145003 | 13 | 271 | 3.2 | 11.3 | 0.03 | 0.97 | 0.03 | 55 | 1007.2 |
| 20260507144516 | 13 | 254 | 3.2 | 17.7 | 0.03 | 0.97 | 0.03 | 56 | 1007.2 |
| 20260507144004 | 13 | 286 | 4.8 | 17.7 | 0.03 | 0.97 | 0.03 | 58 | 1007.2 |
| 20260507143503 | 13 | 273 | 1.6 | 8.0 | 0.03 | 0.97 | 0.03 | 61 | 1007.1 |
| 20260507142503 | 13 | 265 | 3.2 | 11.3 | 0.00 | 0.94 | 0.00 | 60 | 1007.0 |
| 20260507142007 | 13 | 302 | 4.8 | 16.1 | 0.00 | 0.94 | 0.00 | 58 | 1007.0 |
| 20260507141504 | 13 | 292 | 1.6 | 16.1 | 0.00 | 0.94 | 0.00 | 57 | 1007.1 |
| 20260507140504 | 12 | 261 | 4.8 | 14.5 | 0.00 | 0.94 | 0.00 | 59 | 1007.1 |
| 20260507140009 | 12 | 307 | 3.2 | 14.5 | 0.00 | 0.94 | 0.00 | 59 | 1007.0 |
| 20260507135505 | 12 | 273 | 3.2 | 8.0 | 0.00 | 0.94 | 0.00 | 58 | 1006.9 |
| 20260507135003 | 12 | 292 | 3.2 | 6.4 | 0.00 | 0.94 | 0.00 | 61 | 1007.0 |
| 20260507134514 | 12 | 282 | 1.6 | 9.7 | 0.00 | 0.94 | 0.00 | 59 | 1007.0 |
| 20260507134007 | 12 | 300 | 1.6 | 9.7 | 0.00 | 0.94 | 0.00 | 59 | 1007.2 |
| 20260507133504 | 12 | 307 | 0.0 | 9.7 | 0.00 | 0.94 | 0.00 | 62 | 1007.3 |
| 20260507133015 | 12 | 259 | 3.2 | 6.4 | 0.00 | 0.94 | 0.00 | 60 | 1007.3 |
| 20260507132503 | 12 | 281 | 1.6 | 6.4 | 0.00 | 0.94 | 0.00 | 62 | 1007.4 |
| 20260507131506 | 11 | 285 | 1.6 | 9.7 | 0.00 | 0.94 | 0.00 | 61 | 1007.4 |
| 20260507131003 | 11 | 296 | 3.2 | 9.7 | 0.00 | 0.94 | 0.00 | 61 | 1007.3 |
| 20260507130006 | 11 | 275 | 1.6 | 11.3 | 0.00 | 0.94 | 0.00 | 64 | 1007.3 |
| 20260507125504 | 11 | 342 | 0.0 | 11.3 | 0.00 | 0.94 | 0.00 | 65 | 1007.4 |
| 20260507125005 | 11 | 286 | 0.0 | 6.4 | 0.00 | 0.94 | 0.00 | 66 | 1007.4 |
| 20260507124511 | 10 | 289 | 3.2 | 8.0 | 0.00 | 0.94 | 0.00 | 66 | 1007.5 |
| 20260507124006 | 10 | 277 | 1.6 | 11.3 | 0.00 | 0.94 | 0.00 | 68 | 1007.5 |
| 20260507123506 | 10 | 275 | 3.2 | 11.3 | 0.00 | 0.94 | 0.00 | 68 | 1007.6 |
| 20260507123018 | 10 | 276 | 3.2 | 14.5 | 0.00 | 0.94 | 0.00 | 69 | 1007.6 |
| 20260507122504 | 10 | 274 | 3.2 | 14.5 | 0.00 | 0.94 | 0.00 | 70 | 1007.7 |
| 20260507122011 | 10 | 279 | 3.2 | 11.3 | 0.00 | 0.94 | 0.00 | 72 | 1007.6 |
| 20260507121518 | 10 | 297 | 1.6 | 11.3 | 0.00 | 0.94 | 0.00 | 75 | 1007.6 |
| 20260507120007 | 9 | 272 | 1.6 | 4.8 | 0.00 | 0.94 | 0.00 | 78 | 1007.6 |
| 20260507115503 | 8 | 277 | 3.2 | 4.8 | 0.00 | 0.94 | 0.00 | 80 | 1007.6 |
| 20260507115008 | 8 | 288 | 1.6 | 4.8 | 0.00 | 0.94 | 0.00 | 81 | 1007.6 |
| 20260507114509 | 8 | 289 | 0.0 | 4.8 | 0.00 | 0.94 | 0.00 | 84 | 1007.6 |
| 20260507114003 | 8 | 281 | 1.6 | 4.8 | 0.00 | 0.94 | 0.00 | 83 | 1007.6 |
| 20260507113506 | 8 | 277 | 0.0 | 3.2 | 0.00 | 0.94 | 0.00 | 84 | 1007.6 |
| 20260507113014 | 8 | 277 | 0.0 | 3.2 | 0.00 | 0.94 | 0.00 | 84 | 1007.7 |
| 20260507112511 | 8 | 277 | 0.0 | 3.2 | 0.00 | 0.94 | 0.00 | 84 | 1007.7 |
| 20260507112008 | 8 | 277 | 0.0 | 3.2 | 0.00 | 0.94 | 0.00 | 83 | 1007.5 |
| 20260507111533 | 8 | 277 | 0.0 | 3.2 | 0.00 | 0.94 | 0.00 | 83 | 1007.3 |
| 20260507111008 | 8 | 277 | 0.0 | 3.2 | 0.00 | 0.94 | 0.00 | 83 | 1007.4 |
| 20260507110512 | 8 | 272 | 0.0 | 3.2 | 0.00 | 0.94 | 0.00 | 84 | 1007.3 |
| 20260507110022 | 8 | 327 | 0.0 | 4.8 | 0.00 | 0.94 | 0.00 | 83 | 1007.3 |
| 20260507105505 | 8 | 290 | 0.0 | 4.8 | 0.00 | 0.94 | 0.00 | 84 | 1007.3 |
| 20260507105003 | 8 | 292 | 1.6 | 4.8 | 0.00 | 0.94 | 0.00 | 84 | 1007.4 |
| 20260507104509 | 8 | 271 | 1.6 | 4.8 | 0.00 | 0.94 | 0.00 | 87 | 1007.3 |
| 20260507104006 | 8 | 288 | 0.0 | 3.2 | 0.00 | 0.94 | 0.00 | 87 | 1007.3 |
| 20260507103503 | 8 | 289 | 0.0 | 3.2 | 0.00 | 0.94 | 0.00 | 86 | 1007.2 |
| 20260507103017 | 8 | 289 | 0.0 | 3.2 | 0.00 | 0.94 | 0.00 | 86 | 1007.4 |
| 20260507102507 | 8 | 290 | 0.0 | 3.2 | 0.00 | 0.94 | 0.00 | 85 | 1007.3 |
| 20260507102008 | 8 | 279 | 0.0 | 4.8 | 0.00 | 0.94 | 0.00 | 86 | 1007.2 |
| 20260507101520 | 8 | 279 | 1.6 | 4.8 | 0.00 | 0.94 | 0.00 | 86 | 1007.2 |
| 20260507101004 | 8 | 287 | 0.0 | 3.2 | 0.00 | 0.94 | 0.00 | 86 | 1007.5 |
| 20260507100507 | 8 | 287 | 0.0 | 3.2 | 0.00 | 0.94 | 0.00 | 86 | 1007.5 |
| 20260507100025 | 8 | 277 | 0.0 | 4.8 | 0.00 | 0.94 | 0.00 | 86 | 1007.3 |
| 20260507095505 | 8 | 276 | 3.2 | 4.8 | 0.00 | 0.94 | 0.00 | 85 | 1007.3 |
| 20260507095011 | 8 | 286 | 0.0 | 3.2 | 0.00 | 0.94 | 0.00 | 86 | 1007.4 |
| 20260507094535 | 8 | 286 | 0.0 | 3.2 | 0.00 | 0.94 | 0.00 | 86 | 1007.2 |
| 20260507094007 | 8 | 281 | 0.0 | 3.2 | 0.00 | 0.94 | 0.00 | 86 | 1007.2 |
| 20260507093503 | 8 | 284 | 0.0 | 6.4 | 0.00 | 0.94 | 0.00 | 85 | 1007.1 |
| 20260507093017 | 8 | 284 | 1.6 | 6.4 | 0.00 | 0.94 | 0.00 | 85 | 1007.3 |
| 20260507092504 | 8 | 290 | 1.6 | 4.8 | 0.00 | 0.94 | 0.00 | 86 | 1007.3 |
| 20260507092006 | 8 | 288 | 1.6 | 3.2 | 0.00 | 0.94 | 0.00 | 86 | 1007.3 |
| 20260507091526 | 8 | 288 | 1.6 | 3.2 | 0.00 | 0.94 | 0.00 | 86 | 1007.0 |
| 20260507091009 | 8 | 277 | 0.0 | 4.8 | 0.00 | 0.94 | 0.00 | 86 | 1007.1 |
| 20260507090504 | 8 | 279 | 0.0 | 4.8 | 0.00 | 0.94 | 0.00 | 85 | 1007.4 |
| 20260507090032 | 8 | 272 | 0.0 | 11.3 | 0.00 | 0.94 | 0.00 | 86 | 1007.1 |
| 20260507085508 | 8 | 266 | 3.2 | 8.0 | 0.00 | 0.94 | 0.00 | 86 | 1006.6 |
| 20260507085009 | 8 | 288 | 1.6 | 6.4 | 0.00 | 0.94 | 0.00 | 86 | 1006.7 |
| 20260507084533 | 8 | 246 | 3.2 | 12.9 | 0.00 | 0.94 | 0.00 | 86 | 1006.6 |
| 20260507084007 | 8 | 281 | 1.6 | 12.9 | 0.00 | 0.94 | 0.00 | 87 | 1006.9 |
| 20260507082503 | 8 | 297 | 1.6 | 11.3 | 0.00 | 0.94 | 0.00 | 86 | 1006.5 |
| 20260507082005 | 8 | 282 | 3.2 | 11.3 | 0.00 | 0.94 | 0.00 | 85 | 1006.4 |
| 20260507081521 | 8 | 286 | 1.6 | 4.8 | 0.00 | 0.94 | 0.00 | 86 | 1006.5 |
| 20260507081006 | 8 | 286 | 0.0 | 4.8 | 0.00 | 0.94 | 0.00 | 87 | 1006.8 |
| 20260507080506 | 8 | 286 | 1.6 | 4.8 | 0.00 | 0.94 | 0.00 | 85 | 1007.0 |
| 20260507080019 | 8 | 281 | 1.6 | 4.8 | 0.00 | 0.94 | 0.00 | 85 | 1006.8 |
| 20260507075508 | 8 | 278 | 1.6 | 4.8 | 0.00 | 0.94 | 0.00 | 86 | 1006.8 |
| 20260507075011 | 8 | 275 | 1.6 | 4.8 | 0.00 | 0.94 | 0.00 | 86 | 1006.7 |
| 20260507074522 | 8 | 279 | 1.6 | 11.3 | 0.00 | 0.94 | 0.00 | 86 | 1006.4 |
| 20260507074009 | 8 | 281 | 0.0 | 11.3 | 0.00 | 0.94 | 0.00 | 86 | 1006.2 |
| 20260507073507 | 8 | 306 | 3.2 | 11.3 | 0.00 | 0.94 | 0.00 | 86 | 1006.4 |
| 20260507073027 | 8 | 289 | 1.6 | 8.0 | 0.00 | 0.94 | 0.00 | 86 | 1006.6 |
| 20260507072509 | 9 | 305 | 0.0 | 12.9 | 0.00 | 0.94 | 0.00 | 86 | 1006.2 |
| 20260507072008 | 9 | 289 | 1.6 | 12.9 | 0.00 | 0.94 | 0.00 | 86 | 1006.4 |
| 20260507071512 | 9 | 305 | 3.2 | 12.9 | 0.00 | 0.94 | 0.00 | 87 | 1006.4 |
| 20260507071008 | 9 | 285 | 1.6 | 9.7 | 0.00 | 0.94 | 0.00 | 88 | 1006.0 |
| 20260507070504 | 9 | 286 | 0.0 | 14.5 | 0.00 | 0.94 | 0.00 | 88 | 1006.0 |
| 20260507070020 | 9 | 291 | 1.6 | 16.1 | 0.00 | 0.94 | 0.00 | 87 | 1006.0 |
| 20260507065507 | 9 | 286 | 6.4 | 16.1 | 0.00 | 0.94 | 0.00 | 87 | 1006.2 |
| 20260507065007 | 9 | 279 | 3.2 | 6.4 | 0.00 | 0.94 | 0.00 | 88 | 1006.1 |
| 20260507064525 | 9 | 273 | 3.2 | 11.3 | 0.00 | 0.94 | 0.00 | 88 | 1006.0 |
| 20260507064009 | 9 | 282 | 4.8 | 11.3 | 0.00 | 0.94 | 0.00 | 88 | 1006.0 |
| 20260507063510 | 9 | 280 | 4.8 | 8.0 | 0.00 | 0.94 | 0.00 | 88 | 1005.8 |
| 20260507063026 | 9 | 276 | 3.2 | 8.0 | 0.00 | 0.94 | 0.00 | 88 | 1005.9 |
| 20260507062510 | 9 | 288 | 3.2 | 6.4 | 0.00 | 0.94 | 0.00 | 89 | 1005.9 |
| 20260507061525 | 9 | 281 | 4.8 | 11.3 | 0.00 | 0.94 | 0.00 | 90 | 1006.1 |
| 20260507061010 | 9 | 271 | 1.6 | 6.4 | 0.00 | 0.94 | 0.00 | 90 | 1006.2 |
| 20260507060507 | 9 | 271 | 3.2 | 6.4 | 0.00 | 0.94 | 0.00 | 91 | 1006.2 |
| 20260507060016 | 10 | 270 | 3.2 | 4.8 | 0.00 | 0.94 | 0.00 | 90 | 1006.1 |
| 20260507055510 | 10 | 275 | 1.6 | 4.8 | 0.00 | 0.94 | 0.00 | 90 | 1006.0 |
| 20260507055005 | 10 | 277 | 1.6 | 4.8 | 0.00 | 0.94 | 0.00 | 90 | 1006.0 |
| 20260507054518 | 10 | 278 | 1.6 | 4.8 | 0.00 | 0.94 | 0.00 | 90 | 1006.0 |
| 20260507054007 | 10 | 275 | 1.6 | 4.8 | 0.00 | 0.94 | 0.00 | 90 | 1006.1 |
| 20260507053513 | 10 | 269 | 1.6 | 4.8 | 0.00 | 0.94 | 0.00 | 90 | 1005.9 |
| 20260507053024 | 10 | 284 | 1.6 | 4.8 | 0.00 | 0.94 | 0.00 | 91 | 1006.1 |
| 20260507052510 | 10 | 277 | 3.2 | 4.8 | 0.00 | 0.94 | 0.00 | 91 | 1006.2 |
| 20260507052013 | 10 | 281 | 1.6 | 4.8 | 0.00 | 0.94 | 0.00 | 91 | 1006.1 |
| 20260507051511 | 10 | 281 | 1.6 | 4.8 | 0.00 | 0.94 | 0.00 | 91 | 1006.1 |
| 20260507051002 | 10 | 290 | 1.6 | 6.4 | 0.00 | 0.94 | 0.00 | 90 | 1005.9 |
| 20260507050502 | 10 | 272 | 1.6 | 6.4 | 0.00 | 0.94 | 0.00 | 90 | 1005.9 |
| 20260507050010 | 10 | 277 | 1.6 | 3.2 | 0.00 | 0.94 | 0.00 | 91 | 1005.9 |
| 20260507045506 | 10 | 275 | 0.0 | 3.2 | 0.00 | 0.94 | 0.00 | 91 | 1006.2 |
| 20260507045006 | 10 | 284 | 0.0 | 3.2 | 0.00 | 0.94 | 0.00 | 91 | 1006.2 |
| 20260507044538 | 10 | 284 | 1.6 | 3.2 | 0.00 | 0.94 | 0.00 | 92 | 1006.3 |
| 20260507044007 | 11 | 259 | 0.0 | 4.8 | 0.00 | 0.94 | 0.00 | 92 | 1006.2 |
| 20260507043502 | 11 | 259 | 0.0 | 4.8 | 0.00 | 0.94 | 0.00 | 92 | 1006.1 |
| 20260507043004 | 11 | 290 | 1.6 | 6.4 | 0.00 | 0.94 | 0.00 | 92 | 1005.9 |
| 20260507042504 | 11 | 296 | 0.0 | 6.4 | 0.00 | 0.94 | 0.00 | 92 | 1005.9 |
| 20260507042002 | 11 | 277 | 0.0 | 3.2 | 0.00 | 0.94 | 0.00 | 92 | 1005.8 |
| 20260507041510 | 11 | 277 | 1.6 | 4.8 | 0.00 | 0.94 | 0.00 | 92 | 1005.9 |
| 20260507041002 | 11 | 277 | 1.6 | 4.8 | 0.00 | 0.94 | 0.00 | 92 | 1005.9 |
| 20260507040504 | 11 | 282 | 0.0 | 3.2 | 0.00 | 0.94 | 0.00 | 92 | 1005.8 |
| 20260507040014 | 11 | 288 | 0.0 | 3.2 | 0.00 | 0.94 | 0.00 | 92 | 1005.6 |
| 20260507035504 | 11 | 286 | 0.0 | 4.8 | 0.00 | 0.94 | 0.94 | 92 | 1005.6 |
| 20260507035007 | 11 | 286 | 1.6 | 4.8 | 0.00 | 0.94 | 0.94 | 92 | 1005.6 |
| 20260507034516 | 11 | 287 | 1.6 | 9.7 | 0.00 | 0.94 | 0.94 | 91 | 1005.6 |
| 20260507034007 | 12 | 292 | 1.6 | 9.7 | 0.00 | 0.94 | 0.94 | 91 | 1005.6 |
| 20260507033508 | 12 | 279 | 1.6 | 4.8 | 0.00 | 0.94 | 0.94 | 91 | 1005.5 |
| 20260507033020 | 12 | 277 | 1.6 | 6.4 | 0.00 | 0.94 | 0.94 | 91 | 1005.5 |
| 20260507032509 | 12 | 275 | 1.6 | 6.4 | 0.03 | 0.94 | 0.94 | 91 | 1005.6 |
| 20260507032003 | 12 | 275 | 3.2 | 8.0 | 0.05 | 0.94 | 0.94 | 91 | 1005.7 |
| 20260507031508 | 12 | 270 | 4.8 | 12.9 | 0.05 | 0.94 | 0.94 | 91 | 1005.5 |
| 20260507031004 | 13 | 270 | 4.8 | 12.9 | 0.05 | 0.94 | 0.94 | 92 | 1005.5 |
| 20260507030503 | 13 | 274 | 3.2 | 12.9 | 0.05 | 0.94 | 0.94 | 92 | 1005.5 |
| 20260507030012 | 13 | 286 | 3.2 | 12.9 | 0.05 | 0.94 | 0.94 | 93 | 1005.5 |
| 20260507025502 | 13 | 270 | 3.2 | 6.4 | 0.05 | 0.94 | 0.94 | 93 | 1005.5 |
| 20260507025006 | 14 | 294 | 3.2 | 6.4 | 0.05 | 0.94 | 0.94 | 94 | 1005.3 |
| 20260507024515 | 14 | 285 | 1.6 | 6.4 | 0.05 | 0.94 | 0.94 | 94 | 1005.1 |
| 20260507024006 | 15 | 280 | 3.2 | 4.8 | 0.05 | 0.94 | 0.94 | 94 | 1005.1 |
| 20260507023506 | 15 | 282 | 1.6 | 3.2 | 0.05 | 0.94 | 0.94 | 94 | 1005.0 |
| 20260507023017 | 15 | 232 | 0.0 | 3.2 | 0.05 | 0.94 | 0.94 | 94 | 1004.9 |
| 20260507022507 | 15 | 214 | 0.0 | 3.2 | 0.03 | 0.91 | 0.91 | 94 | 1004.9 |
| 20260507022009 | 15 | 213 | 0.0 | 3.2 | 0.00 | 0.89 | 0.89 | 94 | 1004.9 |
| 20260507021528 | 15 | 214 | 0.0 | 3.2 | 0.00 | 0.89 | 0.89 | 94 | 1004.8 |
| 20260507021005 | 15 | 215 | 0.0 | 3.2 | 0.00 | 0.89 | 0.89 | 94 | 1004.9 |
| 20260507020505 | 15 | 215 | 0.0 | 3.2 | 0.00 | 0.89 | 0.89 | 94 | 1005.0 |
| 20260507020010 | 15 | 215 | 0.0 | 3.2 | 0.00 | 0.89 | 0.89 | 94 | 1005.0 |
| 20260507015502 | 15 | 181 | 0.0 | 3.2 | 0.00 | 0.89 | 0.89 | 94 | 1005.0 |
| 20260507015005 | 15 | 170 | 0.0 | 3.2 | 0.00 | 0.89 | 0.89 | 94 | 1005.0 |
| 20260507014512 | 15 | 190 | 0.0 | 3.2 | 0.00 | 0.89 | 0.89 | 94 | 1005.1 |
| 20260507014006 | 15 | 199 | 1.6 | 3.2 | 0.00 | 0.89 | 0.89 | 94 | 1005.1 |
| 20260507013505 | 15 | 130 | 1.6 | 4.8 | 0.00 | 0.89 | 0.89 | 94 | 1005.2 |
| 20260507013019 | 15 | 198 | 1.6 | 4.8 | 0.00 | 0.89 | 0.89 | 94 | 1005.2 |
| 20260507012508 | 15 | 195 | 0.0 | 3.2 | 0.00 | 0.89 | 0.89 | 94 | 1005.1 |
| 20260507012008 | 15 | 192 | 0.0 | 3.2 | 0.00 | 0.89 | 0.89 | 94 | 1005.1 |
| 20260507011524 | 15 | 178 | 0.0 | 3.2 | 0.00 | 0.89 | 0.89 | 94 | 1005.2 |
| 20260507011012 | 15 | 178 | 0.0 | 3.2 | 0.00 | 0.89 | 0.89 | 94 | 1005.2 |
| 20260507010509 | 15 | 184 | 0.0 | 3.2 | 0.00 | 0.89 | 0.89 | 94 | 1005.2 |
| 20260507010006 | 15 | 170 | 0.0 | 3.2 | 0.00 | 0.89 | 0.89 | 94 | 1005.2 |
| 20260507005503 | 15 | 175 | 0.0 | 3.2 | 0.00 | 0.89 | 0.89 | 94 | 1005.2 |
| 20260507005006 | 15 | 183 | 0.0 | 3.2 | 0.00 | 0.89 | 0.89 | 94 | 1005.1 |
| 20260507004511 | 15 | 208 | 0.0 | 3.2 | 0.00 | 0.89 | 0.89 | 94 | 1005.2 |
| 20260507004005 | 15 | 178 | 0.0 | 4.8 | 0.00 | 0.89 | 0.89 | 94 | 1005.2 |
| 20260507003502 | 15 | 214 | 1.6 | 4.8 | 0.00 | 0.89 | 0.89 | 94 | 1005.2 |
| 20260507003026 | 15 | 167 | 1.6 | 3.2 | 0.00 | 0.89 | 0.89 | 94 | 1005.1 |
| 20260507002506 | 15 | 194 | 0.0 | 4.8 | 0.00 | 0.89 | 0.89 | 94 | 1005.1 |
| 20260507002007 | 15 | 193 | 1.6 | 4.8 | 0.00 | 0.89 | 0.89 | 94 | 1005.0 |
| 20260507001534 | 15 | 180 | 1.6 | 3.2 | 0.00 | 0.89 | 0.89 | 94 | 1004.8 |
| 20260507001007 | 15 | 196 | 0.0 | 4.8 | 0.00 | 0.89 | 0.89 | 93 | 1004.8 |
| 20260507000508 | 15 | 200 | 1.6 | 4.8 | 0.00 | 0.89 | 0.89 | 93 | 1004.9 |
| 20260507000022 | 15 | 175 | 1.6 | 4.8 | 0.00 | 0.89 | 0.89 | 93 | 1004.9 |
| 20260506235507 | 15 | 175 | 1.6 | 4.8 | 0.00 | 0.89 | 0.89 | 93 | 1004.8 |
| 20260506235003 | 15 | 146 | 1.6 | 4.8 | 0.00 | 0.89 | 0.89 | 93 | 1004.8 |
| 20260506234509 | 15 | 176 | 1.6 | 4.8 | 0.00 | 0.89 | 0.89 | 93 | 1004.8 |
| 20260506234005 | 15 | 186 | 1.6 | 4.8 | 0.00 | 0.89 | 0.89 | 93 | 1004.8 |
| 20260506233503 | 15 | 159 | 0.0 | 8.0 | 0.00 | 0.89 | 0.89 | 93 | 1004.8 |